Regional Weather Roundup
Issued by NWS Green Bay, WI

Home | Current Version | Previous Version | Text Only | Print | Product List | Glossary On
Versions: 1 2 3 4 5 6 7 8 9 10 11 12 13 14 15 16 17 18 19 20 21 22 23 24 25 26 27 28 29 30 31 32 33 34 35 36 37 38 39 40 41 42 43 44 45 46 47 48 49 50
000
ASUS43 KGRB 310700
RWRGRB

NORTH-CENTRAL AND NORTHEAST WISCONSIN REGIONAL WEATHER ROUNDUP
NATIONAL WEATHER SERVICE GREEN BAY WI
200 AM CDT SAT JUL 31 2021

WIZ005-009-010>012-018-019-310800-
NORTH CENTRAL WISCONSIN

CITY           SKY/WX    TMP DP  RH WIND       PRES   REMARKS
IRONWOOD       MOCLDY    64  58  80 SW7       30.00F
MANITOWISH WTR PTCLDY    62  62 100 SW5       30.03F
ARBOR VITAE    PTCLDY    63  49  61 SW5       30.04F
EAGLE RIVER    CLEAR     61  61 100 SW6       30.03F
LAND O LAKES     N/A     61  59  94 SW3       30.03F
RHINELANDER    CLEAR     63  59  87 W8        30.06F
PHILLIPS       MOCLDY    63  63 100 SW8       30.05S
ANTIGO         NOT AVBL
TOMAHAWK       CLEAR     58  58  97 CALM      30.06F
MERRILL        CLEAR     59  59 100 CALM      30.05F
$$

WIZ013-073-310800-
NORTHEAST WISCONSIN

CITY           SKY/WX    TMP DP  RH WIND       PRES   REMARKS
IRON MOUNTAIN  PTCLDY    64  57  78 W7        29.99F
MARINETTE      MOCLDY    62  59  90 VRB5      30.03F
$$

WIZ017-030-035>037-045-310800-
CENTRAL WISCONSIN

CITY           SKY/WX    TMP DP  RH WIND       PRES   REMARKS
MEDFORD        CLEAR     59  59 100 SW5       30.08S
WAUSAU         CLEAR     65  60  84 S3        30.05F
MOSINEE        CLEAR     59  59 100 SW6       30.08S
MARSHFIELD     CLOUDY    63  61  93 W8        30.08S FOG
WISC RAPIDS    CLEAR     62  60  93 SW6       30.09R
STEVENS POINT  CLEAR     60  60 100 SW7       30.09R
WAUPACA        CLEAR     60  58  94 CALM      30.08S
SHAWANO        PTCLDY    64  60  88 SW7       30.05S
CLINTONVILLE   PTCLDY    61  58  88 SW5       30.06S
WAUTOMA        CLEAR     58  57  97 CALM      30.09S
$$

WIZ038-039-048-051-310800-
FOX VALLEY

CITY           SKY/WX    TMP DP  RH WIND       PRES   REMARKS
NWS GREEN BAY  CLEAR     59  55  87 SW3       30.04F
APPLETON       CLEAR     61  55  82 SW8       30.05F
OSHKOSH        CLEAR     60  57  89 S5        30.07S
FOND DU LAC    CLEAR     61  53  75 S6        30.08F
$$

WIZ022-050-052-310800-
EAST CENTRAL WISCONSIN

CITY           SKY/WX    TMP DP  RH WIND       PRES   REMARKS
EPHRAIM        FAIR      58  54  85 SW3       30.01F
WASHINGTON ISL PTSUNNY   62  57  85 SW9       30.00F
STURGEON BAY   PTCLDY    58  54  86 S8        30.04
MANITOWOC      CLEAR     58  55  90 SW6       30.06F
SHEBOYGAN      CLEAR     56  52  86 SW6       30.07F
$$

LMZ563-521-522-541>543-310800-
LAKESHORE

STATION/POSITION TIME  TEMP    WIND        PRES    VSBY  WAVE
                       AIR SEA DIR/SP/G                  HT/PER
                 (UTC) (F)     (DEG/KT/KT) (MB)    (MI)  (FT/S)
SHEBOYGAN LKSHOR 0600   61     220/  9/ 10   N/A
KEWAUNEE LKSHORE 0624   60     250/  5/  8 1016.3
NORTHPORT PIER   0630   62     160/  4/  9 1017.3F
N MID LAKE BUOY  0640   65 67  210/ 17/ 19 1016.5F
S GREEN BAY BUOY 0630   74 73  220/ 14/ 17 1016.5F         2/ 4
SISTER BAY LKSHO 0617   63     180/  8/ 10   N/A
CHAMBERS ISLAND  0640   67     170/  7/ 12   N/A
MENOMINEE LKSHOR 0624   65 75  230/  9/ 11 1015.6
$$



USA.gov is the U.S. government's official web portal to all federal, state and local government web resources and services.